| time (UTC) | temp F | wind direction | speed MPH | gust MPH | rain 1hr in | rain 24hr in | rain mn in | humidity % | barometer mb |
| 20260508135542 | 68 | 0.0 | 1.0 | 0.00 | 0.02 | 0.00 | 60 | 1020.9 | |
| 20260508134521 | 67 | 0.0 | 2.0 | 0.00 | 0.02 | 0.00 | 60 | 1020.8 | |
| 20260508133521 | 66 | 0.0 | 1.0 | 0.00 | 0.02 | 0.00 | 63 | 1020.8 | |
| 20260508132521 | 66 | 0.0 | 1.0 | 0.00 | 0.02 | 0.00 | 65 | 1020.7 | |
| 20260508131521 | 66 | 0.0 | 2.0 | 0.00 | 0.02 | 0.00 | 65 | 1020.6 | |
| 20260508130541 | 63 | 0.0 | 1.0 | 0.00 | 0.02 | 0.00 | 73 | 1020.7 | |
| 20260508125521 | 62 | 0.0 | 1.0 | 0.00 | 0.02 | 0.00 | 73 | 1020.6 | |
| 20260508124521 | 60 | 0.0 | 3.0 | 0.00 | 0.02 | 0.00 | 78 | 1020.5 | |
| 20260508123521 | 58 | 0.0 | 1.0 | 0.00 | 0.02 | 0.00 | 83 | 1020.5 | |
| 20260508122521 | 58 | 0.0 | 1.0 | 0.00 | 0.02 | 0.00 | 86 | 1020.4 | |
| 20260508121521 | 54 | 0.0 | 1.0 | 0.00 | 0.02 | 0.00 | 98 | 1020.3 | |
| 20260508120521 | 51 | 0.0 | 2.0 | 0.00 | 0.02 | 0.00 | 99 | 1020.0 | |
| 20260508120021 | 49 | 0.0 | 2.0 | 0.00 | 0.02 | 0.00 | 99 | 1020.0 | |
| 20260508115143 | 49 | 0.0 | 0.0 | 0.00 | 0.02 | 0.00 | 99 | 1019.8 | |
| 20260508114021 | 49 | 0.0 | 1.0 | 0.00 | 0.02 | 0.00 | 99 | 1019.7 | |
| 20260508113021 | 49 | 0.0 | 0.0 | 0.00 | 0.02 | 0.00 | 99 | 1019.6 | |
| 20260508112021 | 48 | 0.0 | 0.0 | 0.00 | 0.02 | 0.00 | 99 | 1019.4 | |
| 20260508111021 | 48 | 0.0 | 0.0 | 0.00 | 0.02 | 0.00 | 98 | 1019.3 | |
| 20260508110021 | 48 | 0.0 | 0.0 | 0.00 | 0.02 | 0.00 | 98 | 1019.2 | |
| 20260508105021 | 48 | 0.0 | 0.0 | 0.00 | 0.02 | 0.00 | 98 | 1019.1 | |
| 20260508104021 | 48 | 0.0 | 0.0 | 0.00 | 0.02 | 0.00 | 98 | 1018.9 | |
| 20260508103021 | 48 | 0.0 | 0.0 | 0.00 | 0.02 | 0.00 | 98 | 1018.7 | |
| 20260508102021 | 49 | 0.0 | 0.0 | 0.00 | 0.02 | 0.00 | 98 | 1018.4 | |
| 20260508101021 | 49 | 0.0 | 0.0 | 0.00 | 0.02 | 0.00 | 98 | 1018.3 | |
| 20260508100021 | 49 | 0.0 | 0.0 | 0.00 | 0.02 | 0.00 | 98 | 1018.3 | |
| 20260508095021 | 49 | 0.0 | 0.0 | 0.00 | 0.02 | 0.00 | 98 | 1018.2 | |
| 20260508094021 | 49 | 0.0 | 0.0 | 0.00 | 0.02 | 0.00 | 98 | 1018.3 | |
| 20260508093021 | 50 | 0.0 | 0.0 | 0.00 | 0.02 | 0.00 | 98 | 1018.3 | |
| 20260508092021 | 50 | 0.0 | 0.0 | 0.00 | 0.02 | 0.00 | 98 | 1018.0 | |
| 20260508091021 | 50 | 0.0 | 0.0 | 0.00 | 0.02 | 0.00 | 98 | 1017.9 | |
| 20260508090021 | 50 | 0.0 | 0.0 | 0.00 | 0.02 | 0.00 | 98 | 1017.6 | |
| 20260508085021 | 50 | 0.0 | 0.0 | 0.00 | 0.02 | 0.00 | 98 | 1017.6 | |
| 20260508084026 | 50 | 0.0 | 0.0 | 0.00 | 0.02 | 0.00 | 98 | 1017.6 | |
| 20260508083021 | 50 | 0.0 | 0.0 | 0.00 | 0.02 | 0.00 | 98 | 1017.5 | |
| 20260508082021 | 51 | 0.0 | 0.0 | 0.00 | 0.02 | 0.00 | 98 | 1017.4 | |
| 20260508081101 | 51 | 0.0 | 0.0 | 0.00 | 0.02 | 0.00 | 98 | 1017.3 | |
| 20260508080021 | 51 | 0.0 | 1.0 | 0.00 | 0.02 | 0.00 | 98 | 1017.2 | |
| 20260508075021 | 51 | 0.0 | 0.0 | 0.00 | 0.02 | 0.00 | 98 | 1017.2 | |
| 20260508074021 | 51 | 0.0 | 0.0 | 0.00 | 0.02 | 0.00 | 98 | 1017.1 | |
| 20260508073021 | 52 | 0.0 | 0.0 | 0.00 | 0.02 | 0.00 | 98 | 1016.9 | |
| 20260508072020 | 52 | 0.0 | 0.0 | 0.00 | 0.02 | 0.00 | 98 | 1016.9 | |
| 20260508071021 | 52 | 0.0 | 0.0 | 0.00 | 0.02 | 0.00 | 98 | 1016.8 | |
| 20260508070020 | 52 | 0.0 | 0.0 | 0.00 | 0.02 | 0.00 | 98 | 1016.6 | |
| 20260508065101 | 52 | 0.0 | 0.0 | 0.00 | 0.02 | 0.00 | 98 | 1016.7 | |
| 20260508064021 | 52 | 0.0 | 3.0 | 0.00 | 0.02 | 0.00 | 98 | 1016.6 | |
| 20260508063021 | 52 | 0.0 | 0.0 | 0.00 | 0.02 | 0.00 | 98 | 1016.5 | |
| 20260508062021 | 52 | 0.0 | 2.0 | 0.00 | 0.02 | 0.00 | 98 | 1016.5 | |
| 20260508061021 | 52 | 0.0 | 0.0 | 0.00 | 0.02 | 0.00 | 98 | 1016.6 | |
| 20260508060020 | 52 | 0.0 | 0.0 | 0.00 | 0.02 | 0.00 | 98 | 1016.8 | |
| 20260508055020 | 52 | 0.0 | 0.0 | 0.00 | 0.02 | 0.00 | 98 | 1016.7 | |
| 20260508054100 | 52 | 0.0 | 0.0 | 0.00 | 0.02 | 0.00 | 98 | 1016.7 | |
| 20260508053021 | 52 | 0.0 | 0.0 | 0.00 | 0.02 | 0.00 | 97 | 1016.7 | |
| 20260508052022 | 53 | 0.0 | 0.0 | 0.00 | 0.02 | 0.00 | 97 | 1016.7 | |
| 20260508051022 | 53 | 0.0 | 0.0 | 0.00 | 0.02 | 0.00 | 98 | 1016.8 | |
| 20260508050021 | 53 | 0.0 | 0.0 | 0.00 | 0.02 | 0.00 | 98 | 1016.6 | |
| 20260508045021 | 53 | 0.0 | 0.0 | 0.00 | 0.02 | 0.00 | 98 | 1016.7 | |
| 20260508044022 | 52 | 0.0 | 0.0 | 0.00 | 0.02 | 0.00 | 97 | 1016.7 | |
| 20260508043042 | 52 | 0.0 | 0.0 | 0.00 | 0.02 | 0.00 | 97 | 1016.6 | |
| 20260508042021 | 52 | 0.0 | 0.0 | 0.00 | 0.02 | 0.00 | 97 | 1016.6 | |
| 20260508041041 | 52 | 0.0 | 0.0 | 0.00 | 0.02 | 0.00 | 97 | 1016.5 | |
| 20260508040044 | 52 | 0.0 | 0.0 | 0.00 | 0.02 | 0.02 | 97 | 1016.4 | |
| 20260508035021 | 53 | 0.0 | 0.0 | 0.00 | 0.02 | 0.02 | 97 | 1016.1 | |
| 20260508034020 | 53 | 0.0 | 0.0 | 0.00 | 0.02 | 0.02 | 97 | 1016.1 | |
| 20260508033543 | 53 | 0.0 | 0.0 | 0.00 | 0.02 | 0.02 | 96 | 1016.1 | |
| 20260508032520 | 53 | 0.0 | 0.0 | 0.00 | 0.02 | 0.02 | 96 | 1015.8 | |
| 20260508031520 | 54 | 0.0 | 0.0 | 0.00 | 0.02 | 0.02 | 96 | 1016.1 | |
| 20260508030522 | 54 | 0.0 | 1.0 | 0.00 | 0.02 | 0.02 | 96 | 1016.0 | |
| 20260508025522 | 54 | 0.0 | 0.0 | 0.00 | 0.02 | 0.02 | 96 | 1016.0 | |
| 20260508024520 | 55 | 0.0 | 1.0 | 0.00 | 0.02 | 0.02 | 96 | 1015.8 | |
| 20260508023520 | 55 | 0.0 | 1.0 | 0.00 | 0.02 | 0.02 | 96 | 1015.6 | |
| 20260508022522 | 55 | 0.0 | 0.0 | 0.00 | 0.02 | 0.02 | 96 | 1015.7 | |
| 20260508021522 | 55 | 0.0 | 1.0 | 0.00 | 0.02 | 0.02 | 96 | 1015.6 | |
| 20260508020522 | 55 | 0.0 | 0.0 | 0.00 | 0.02 | 0.02 | 96 | 1015.5 | |
| 20260508015601 | 55 | 0.0 | 0.0 | 0.00 | 0.02 | 0.02 | 96 | 1015.5 | |
| 20260508014522 | 55 | 0.0 | 0.0 | 0.00 | 0.02 | 0.02 | 96 | 1015.3 | |
| 20260508013522 | 55 | 0.0 | 0.0 | 0.00 | 0.02 | 0.02 | 96 | 1014.9 | |
| 20260508012522 | 55 | 0.0 | 0.0 | 0.00 | 0.02 | 0.02 | 96 | 1014.5 | |
| 20260508011520 | 55 | 0.0 | 0.0 | 0.00 | 0.02 | 0.02 | 95 | 1014.9 | |
| 20260508010542 | 55 | 0.0 | 0.0 | 0.00 | 0.02 | 0.02 | 95 | 1014.7 | |
| 20260508005542 | 55 | 0.0 | 0.0 | 0.00 | 0.02 | 0.02 | 95 | 1014.6 | |
| 20260508004703 | 56 | 0.0 | 0.0 | 0.00 | 0.02 | 0.02 | 95 | 1014.5 | |
| 20260508003520 | 56 | 0.0 | 0.0 | 0.00 | 0.02 | 0.02 | 95 | 1014.6 | |
| 20260508002542 | 56 | 0.0 | 0.0 | 0.00 | 0.02 | 0.02 | 95 | 1014.4 | |
| 20260508001523 | 56 | 0.0 | 1.0 | 0.02 | 0.02 | 0.02 | 95 | 1014.3 | |
| 20260508000522 | 56 | 0.0 | 0.0 | 0.02 | 0.02 | 0.02 | 95 | 1013.9 | |
| 20260507235522 | 56 | 0.0 | 0.0 | 0.02 | 0.02 | 0.02 | 95 | 1014.0 | |
| 20260507234522 | 56 | 0.0 | 1.0 | 0.02 | 0.02 | 0.02 | 94 | 1014.1 | |
| 20260507233524 | 56 | 0.0 | 1.0 | 0.02 | 0.02 | 0.02 | 95 | 1013.7 | |
| 20260507232542 | 56 | 0.0 | 0.0 | 0.02 | 0.02 | 0.02 | 95 | 1013.7 | |
| 20260507231522 | 56 | 0.0 | 1.0 | 0.00 | 0.00 | 0.00 | 94 | 1013.5 | |
| 20260507230522 | 56 | 0.0 | 1.0 | 0.00 | 0.00 | 0.00 | 94 | 1013.2 | |
| 20260507225522 | 56 | 0.0 | 1.0 | 0.00 | 0.00 | 0.00 | 93 | 1013.1 | |
| 20260507224522 | 56 | 0.0 | 1.0 | 0.00 | 0.00 | 0.00 | 93 | 1013.0 | |
| 20260507223542 | 56 | 0.0 | 1.0 | 0.00 | 0.00 | 0.00 | 93 | 1013.0 | |
| 20260507222522 | 56 | 0.0 | 2.0 | 0.00 | 0.00 | 0.00 | 93 | 1012.9 | |
| 20260507221521 | 56 | 0.0 | 1.0 | 0.00 | 0.00 | 0.00 | 93 | 1013.2 | |
| 20260507220522 | 57 | 0.0 | 3.0 | 0.00 | 0.00 | 0.00 | 93 | 1013.3 | |
| 20260507215522 | 57 | 0.0 | 2.0 | 0.00 | 0.00 | 0.00 | 94 | 1013.6 | |
| 20260507214542 | 57 | 0.0 | 3.0 | 0.00 | 0.00 | 0.00 | 94 | 1013.1 | |
| 20260507213521 | 57 | 0.0 | 1.0 | 0.00 | 0.00 | 0.00 | 94 | 1013.0 | |
| 20260507212522 | 57 | 0.0 | 2.0 | 0.00 | 0.00 | 0.00 | 95 | 1013.1 | |
| 20260507211522 | 57 | 0.0 | 2.0 | 0.00 | 0.00 | 0.00 | 94 | 1013.0 | |
| 20260507210522 | 57 | 0.0 | 1.0 | 0.00 | 0.00 | 0.00 | 94 | 1013.0 | |
| 20260507205542 | 57 | 0.0 | 2.0 | 0.00 | 0.00 | 0.00 | 94 | 1012.9 | |
| 20260507204522 | 57 | 0.0 | 1.0 | 0.00 | 0.00 | 0.00 | 95 | 1012.7 | |
| 20260507203522 | 57 | 0.0 | 3.0 | 0.00 | 0.00 | 0.00 | 96 | 1012.3 | |
| 20260507202542 | 57 | 45 | 1.0 | 4.0 | 0.00 | 0.00 | 0.00 | 95 | 1012.7 |
| 20260507202023 | 57 | 0.0 | 2.0 | 0.00 | 0.00 | 0.00 | 95 | 1012.6 | |
| 20260507201022 | 57 | 0.0 | 3.0 | 0.00 | 0.00 | 0.00 | 96 | 1012.5 | |
| 20260507200022 | 58 | 0.0 | 2.0 | 0.00 | 0.00 | 0.00 | 96 | 1012.4 | |
| 20260507195022 | 58 | 68 | 1.0 | 3.0 | 0.00 | 0.00 | 0.00 | 96 | 1012.4 |
| 20260507194021 | 58 | 0.0 | 2.0 | 0.00 | 0.00 | 0.00 | 97 | 1012.4 | |
| 20260507193022 | 58 | 0.0 | 1.0 | 0.00 | 0.00 | 0.00 | 97 | 1012.5 | |
| 20260507192022 | 58 | 0.0 | 2.0 | 0.00 | 0.00 | 0.00 | 97 | 1012.7 | |
| 20260507191021 | 58 | 0.0 | 2.0 | 0.00 | 0.00 | 0.00 | 97 | 1012.7 | |
| 20260507190021 | 58 | 0.0 | 3.0 | 0.00 | 0.00 | 0.00 | 98 | 1012.6 | |
| 20260507185107 | 57 | 0.0 | 3.0 | 0.00 | 0.00 | 0.00 | 98 | 1012.1 | |
| 20260507184522 | 57 | 0.0 | 2.0 | 0.00 | 0.00 | 0.00 | 98 | 1012.1 | |
| 20260507183521 | 57 | 0.0 | 1.0 | 0.00 | 0.00 | 0.00 | 98 | 1012.5 | |
| 20260507182522 | 57 | 0.0 | 2.0 | 0.00 | 0.00 | 0.00 | 98 | 1012.6 | |
| 20260507181541 | 57 | 0.0 | 2.0 | 0.00 | 0.00 | 0.00 | 98 | 1012.3 | |
| 20260507180522 | 57 | 0.0 | 2.0 | 0.00 | 0.00 | 0.00 | 98 | 1012.2 | |
| 20260507175522 | 57 | 0.0 | 2.0 | 0.00 | 0.00 | 0.00 | 98 | 1012.3 | |
| 20260507174521 | 57 | 0.0 | 2.0 | 0.00 | 0.00 | 0.00 | 97 | 1012.1 | |
| 20260507173521 | 58 | 0.0 | 3.0 | 0.00 | 0.00 | 0.00 | 97 | 1012.6 | |
| 20260507172521 | 58 | 0.0 | 3.0 | 0.00 | 0.00 | 0.00 | 97 | 1012.6 | |
| 20260507171521 | 59 | 0.0 | 2.0 | 0.00 | 0.00 | 0.00 | 97 | 1012.2 | |
| 20260507170521 | 59 | 45 | 1.0 | 3.0 | 0.00 | 0.00 | 0.00 | 97 | 1011.8 |
| 20260507165521 | 60 | 0.0 | 2.0 | 0.00 | 0.00 | 0.00 | 96 | 1011.8 | |
| 20260507164521 | 62 | 45 | 1.0 | 6.0 | 0.00 | 0.00 | 0.00 | 95 | 1012.0 |
| 20260507163521 | 65 | 45 | 1.0 | 3.0 | 0.00 | 0.00 | 0.00 | 96 | 1011.8 |
| 20260507162521 | 67 | 0.0 | 1.0 | 0.00 | 0.00 | 0.00 | 99 | 1011.9 | |
| 20260507161541 | 67 | 0.0 | 0.0 | 0.00 | 0.00 | 0.00 | 99 | 1012.2 | |
| 20260507160522 | 67 | 0.0 | 1.0 | 0.00 | 0.00 | 0.00 | 99 | 1012.6 | |
| 20260507155601 | 67 | 0.0 | 0.0 | 0.00 | 0.00 | 0.00 | 99 | 1012.5 | |
| 20260507154521 | 67 | 0.0 | 1.0 | 0.00 | 0.00 | 0.00 | 99 | 1012.6 | |
| 20260507153521 | 67 | 0.0 | 0.0 | 0.00 | 0.00 | 0.00 | 99 | 1012.3 | |
| 20260507152542 | 67 | 0.0 | 0.0 | 0.00 | 0.00 | 0.00 | 99 | 1012.2 | |
| 20260507151541 | 67 | 0.0 | 0.0 | 0.00 | 0.00 | 0.00 | 99 | 1012.3 | |
| 20260507150521 | 67 | 0.0 | 0.0 | 0.00 | 0.00 | 0.00 | 99 | 1012.5 | |
| 20260507145521 | 67 | 0.0 | 0.0 | 0.00 | 0.00 | 0.00 | 99 | 1012.4 | |
| 20260507144521 | 67 | 0.0 | 0.0 | 0.00 | 0.00 | 0.00 | 99 | 1012.2 | |
| 20260507143521 | 67 | 0.0 | 0.0 | 0.00 | 0.00 | 0.00 | 99 | 1012.2 | |
| 20260507141521 | 67 | 0.0 | 0.0 | 0.00 | 0.00 | 0.00 | 99 | 1012.2 | |
| 20260507140521 | 67 | 0.0 | 0.0 | 0.00 | 0.00 | 0.00 | 99 | 1012.4 |